[[{"header":{"parameterUnit":"m.s-1","parameterCategory":2,"la1":30.2992,"la2":30.254,"lo1":-89.0895,"lo2":-89.0443,"dy":0.0025,"dx":0.0025,"nx":19,"ny":19,"refTime":"2026-05-17T03:00:00:Z","depth":"0","parameterNumber":2,"parameterNumberName":"U-component_of_CURRENTS"},"data":[0,0,0,-0.176,-0.176,-0.1768,-0.1768,-0.1748,-0.1748,0,0,0,0,0,0,0,0,0,0,0,-0.1753,-0.1754,-0.1759,-0.176,-0.1768,-0.1768,-0.1748,-0.1748,0,0,0,0,0,0,0,0,0,0,0,-0.1753,-0.1754,-0.1754,-0.176,-0.1768,-0.1768,-0.1748,-0.1748,0,0,0,0,0,0,0,0,0,0,-0.1743,-0.1739,-0.1754,-0.1754,-0.176,-0.1768,-0.1768,-0.1748,-0.1748,-0.1739,0,-0.1744,0,-0.175,-0.1747,-0.1747,0,0,0,-0.1752,-0.1739,-0.1749,-0.1754,-0.176,-0.1768,-0.1762,-0.1748,-0.1748,-0.1738,-0.1744,-0.1744,-0.175,-0.1747,-0.1747,-0.1771,-0.1772,0,0,-0.1751,-0.1745,-0.175,-0.1749,-0.1768,-0.1762,-0.1762,-0.1748,-0.1745,-0.1744,-0.1744,-0.175,-0.1747,-0.1746,-0.1771,-0.1771,0,0,0,-0.1756,-0.1745,-0.1755,-0.175,-0.1756,-0.1762,-0.1763,-0.1745,-0.1751,-0.1744,-0.1749,-0.1746,-0.1746,-0.177,-0.1771,-0.1854,0,0,0,-0.1755,-0.1748,-0.1755,-0.175,-0.1757,-0.1754,-0.176,-0.1752,-0.1751,-0.175,-0.1746,-0.1746,-0.177,-0.1771,-0.1851,-0.1841,0,0,0,-0.1752,-0.1747,-0.1752,-0.175,-0.1759,-0.1754,-0.1759,-0.1752,-0.1755,-0.1747,-0.1746,-0.177,-0.1771,-0.1848,-0.1837,-0.1773,0,0,0,-0.174,-0.1777,-0.1752,-0.1798,-0.1759,-0.181,-0.1759,-0.1778,-0.1778,-0.1746,-0.177,-0.1771,-0.1847,-0.1835,-0.1773,-0.155,-0.1535,0,0,-0.179,-0.1783,-0.1815,-0.1794,-0.1868,-0.1808,-0.1861,-0.1828,-0.1787,-0.177,-0.1771,-0.1852,-0.1837,-0.1773,-0.1606,-0.1589,0,0,0,-0.1834,-0.1859,-0.1876,-0.1908,-0.1923,-0.1919,-0.1895,-0.187,-0.1851,-0.1792,-0.1848,-0.1835,-0.1792,-0.1657,-0.1644,-0.1538,-0.1775,-0.1775,-0.1775,-0.188,-0.1909,-0.1956,-0.199,-0.2012,-0.2,-0.1986,-0.1942,-0.1915,-0.1914,-0.1903,-0.1906,-0.1767,-0.1754,-0.165,-0.1925,-0.1926,-0.1926,-0.1926,-0.1934,-0.1928,-0.1986,-0.2036,-0.2043,-0.2066,-0.205,-0.2027,-0.1975,-0.1967,-0.1922,-0.1751,-0.1744,-0.1638,-0.1931,-0.1931,-0.193,-0.1929,-0.1929,-0.1903,-0.1894,-0.1947,-0.1986,-0.2021,-0.2041,-0.2007,-0.2014,-0.2002,-0.1993,-0.1754,-0.1749,-0.1646,-0.1948,-0.1948,-0.1947,-0.1947,-0.1947,-0.1947,-0.179,-0.1849,-0.1846,-0.1903,-0.1915,-0.1928,-0.1941,-0.1908,-0.1812,-0.1776,-0.1773,-0.1616,-0.1909,-0.1897,-0.1943,-0.1943,-0.1944,-0.1944,-0.1945,-0.1672,-0.1685,-0.1692,-0.1706,-0.1756,-0.169,-0.1755,-0.1611,-0.1575,-0.1477,-0.1367,-0.1636,-0.1557,-0.1564,-0.1541,-0.1491,-0.1491,-0.1491,-0.1491,-0.1537,-0.1562,-0.1554,-0.1579,-0.1606,-0.1591,-0.1358,-0.1251,-0.1148,-0.1055,-0.1129,-0.11,-0.1123,-0.102,-0.1039,-0.1006,-0.0822,-0.0822,-0.0821,-0.1411,-0.145,-0.1419,-0.1505,-0.1561,-0.1455,-0.1113,-0.0781,-0.0688,-0.0795,-0.1033,-0.1061,-0.103,-0.1074,-0.0923,-0.0959,-0.0909,0,0]},{"header":{"parameterUnit":"m.s-1","parameterCategory":2,"la1":30.2992,"la2":30.254,"lo1":-89.0895,"lo2":-89.0443,"dy":0.0025,"dx":0.0025,"nx":19,"ny":19,"refTime":"2026-05-17T03:00:00:Z","depth":"0","parameterNumber":3,"parameterNumberName":"V-component_of_CURRENTS"},"data":[0,0,0,-0.0324,-0.0323,-0.0266,-0.0265,-0.0166,-0.0165,0,0,0,0,0,0,0,0,0,0,0,-0.0344,-0.0344,-0.0324,-0.0323,-0.0266,-0.0265,-0.0166,-0.0165,0,0,0,0,0,0,0,0,0,0,0,-0.0344,-0.0344,-0.0344,-0.0323,-0.0266,-0.0265,-0.0166,-0.0213,0,0,0,0,0,0,0,0,0,0,-0.0271,-0.03,-0.0344,-0.0344,-0.0323,-0.0266,-0.0265,-0.0216,-0.021,-0.0188,0,-0.0188,0,-0.0178,-0.0159,-0.0159,0,0,0,-0.0311,-0.0304,-0.0289,-0.0344,-0.0322,-0.0266,-0.0288,-0.0213,-0.0207,-0.0181,-0.0186,-0.0183,-0.0177,-0.0158,-0.0158,-0.0111,-0.0112,0,0,-0.0314,-0.0329,-0.0293,-0.0285,-0.0317,-0.029,-0.0287,-0.0209,-0.0206,-0.0186,-0.018,-0.0175,-0.0158,-0.0157,-0.0111,-0.0111,0,0,0,-0.0332,-0.0332,-0.0318,-0.0289,-0.0283,-0.0289,-0.0285,-0.021,-0.0206,-0.0179,-0.0174,-0.0157,-0.0156,-0.0111,-0.0111,-0.0183,0,0,0,-0.0333,-0.0342,-0.032,-0.0328,-0.0286,-0.025,-0.0287,-0.0211,-0.0202,-0.0174,-0.0157,-0.0155,-0.0111,-0.0111,-0.018,-0.0188,0,0,0,-0.0345,-0.0344,-0.034,-0.0329,-0.0309,-0.0251,-0.0242,-0.0209,-0.0199,-0.0159,-0.0155,-0.0111,-0.0111,-0.0178,-0.0185,-0.0107,0,0,0,-0.0357,-0.0387,-0.0341,-0.0369,-0.031,-0.0304,-0.0243,-0.0224,-0.0197,-0.0157,-0.0111,-0.0111,-0.0178,-0.0183,-0.0106,0.0043,0.0054,0,0,-0.0409,-0.0393,-0.0411,-0.037,-0.0391,-0.0311,-0.0312,-0.0245,-0.0193,-0.0132,-0.013,-0.0181,-0.0184,-0.0107,0.0017,0.003,0,0,0,-0.0438,-0.0454,-0.0451,-0.0448,-0.0416,-0.0369,-0.0307,-0.0268,-0.0211,-0.0179,-0.017,-0.0169,-0.0117,-0.0027,-0.0018,0.0097,-0.0113,-0.0113,-0.0113,-0.0527,-0.0511,-0.0538,-0.0511,-0.0491,-0.0411,-0.0365,-0.0294,-0.0254,-0.0238,-0.022,-0.0199,-0.0108,-0.0098,0.0015,-0.0224,-0.0224,-0.0224,-0.0224,-0.0614,-0.0625,-0.0592,-0.0614,-0.0546,-0.0526,-0.0411,-0.0365,-0.0268,-0.0265,-0.0211,-0.01,-0.0092,0.0026,-0.0229,-0.0228,-0.0227,-0.0227,-0.0227,-0.0671,-0.0671,-0.0679,-0.068,-0.0649,-0.057,-0.046,-0.04,-0.0311,-0.0277,-0.0089,-0.0086,0.0021,-0.0227,-0.0227,-0.0227,-0.0227,-0.0226,-0.0226,-0.0713,-0.0719,-0.0743,-0.0736,-0.0715,-0.0631,-0.0481,-0.0365,-0.0192,-0.0121,-0.0118,0.0055,-0.0198,-0.0194,-0.0222,-0.0223,-0.0223,-0.0224,-0.0224,-0.0769,-0.0767,-0.0796,-0.0792,-0.0703,-0.0464,-0.0386,-0.0057,0.0014,0.0147,0.0237,-0.0002,0.0063,0.0058,0.007,0.0112,0.0112,0.0112,0.0112,-0.0793,-0.0801,-0.0803,-0.0762,-0.0627,-0.038,0.0091,0.0349,0.0485,0.0518,0.0435,0.0448,0.043,0.0516,0.05,0.0521,0.0676,0.0677,0.0678,-0.0812,-0.0814,-0.0793,-0.0739,-0.0567,-0.0161,0.0432,0.088,0.0861,0.0705,0.0562,0.0539,0.0554,0.0516,0.0645,0.0614,0.0646,0,0]}],[{"header":{"parameterUnit":"m.s-1","parameterCategory":2,"la1":30.2992,"la2":30.254,"lo1":-89.0895,"lo2":-89.0443,"dy":0.0025,"dx":0.0025,"nx":19,"ny":19,"refTime":"2026-05-17T03:00:00:Z","depth":"2","parameterNumber":2,"parameterNumberName":"U-component_of_CURRENTS"},"data":[0,0,0,-0.1581,-0.1582,-0.1599,-0.1599,-0.1583,-0.1583,0,0,0,0,0,0,0,0,0,0,0,-0.1572,-0.1572,-0.1581,-0.1582,-0.1599,-0.1599,-0.1584,-0.1583,0,0,0,0,0,0,0,0,0,0,0,-0.1572,-0.1572,-0.1573,-0.1582,-0.1599,-0.1599,-0.1584,-0.1578,0,0,0,0,0,0,0,0,0,0,-0.1566,-0.1561,-0.1572,-0.1573,-0.1582,-0.1599,-0.1599,-0.1578,-0.1579,-0.1568,0,-0.1574,0,-0.1582,-0.1582,-0.1582,0,0,0,-0.1575,-0.1561,-0.1572,-0.1573,-0.1582,-0.1599,-0.1589,-0.1579,-0.1579,-0.1568,-0.1574,-0.1574,-0.1582,-0.1582,-0.1582,-0.1595,-0.1595,0,0,-0.1574,-0.1567,-0.1572,-0.1572,-0.1591,-0.1589,-0.159,-0.1579,-0.1576,-0.1574,-0.1574,-0.1582,-0.1582,-0.1582,-0.1595,-0.1595,0,0,0,-0.1576,-0.1566,-0.1578,-0.1572,-0.158,-0.1589,-0.1591,-0.1577,-0.1583,-0.1574,-0.1581,-0.1582,-0.1582,-0.1594,-0.1595,-0.1673,0,0,0,-0.1575,-0.1568,-0.1578,-0.1572,-0.1581,-0.1583,-0.1588,-0.1583,-0.1583,-0.1581,-0.1582,-0.1581,-0.1594,-0.1595,-0.1671,-0.1663,0,0,0,-0.1571,-0.1567,-0.1572,-0.1572,-0.1584,-0.1584,-0.1589,-0.1584,-0.1588,-0.1582,-0.1581,-0.1594,-0.1595,-0.1668,-0.166,-0.1597,0,0,0,-0.1558,-0.1588,-0.1572,-0.1609,-0.1584,-0.1626,-0.1589,-0.1609,-0.161,-0.1582,-0.1594,-0.1595,-0.1667,-0.1658,-0.1597,-0.1394,-0.138,0,0,-0.1595,-0.1592,-0.1617,-0.1605,-0.1664,-0.1623,-0.1667,-0.1646,-0.1613,-0.1593,-0.1594,-0.1672,-0.166,-0.1597,-0.1433,-0.1417,0,0,0,-0.163,-0.1648,-0.1662,-0.169,-0.1706,-0.1712,-0.1696,-0.1677,-0.1666,-0.1617,-0.1663,-0.1652,-0.161,-0.1487,-0.1475,-0.1598,-0.1598,-0.1598,-0.1598,-0.1659,-0.1684,-0.1722,-0.1752,-0.1775,-0.1775,-0.177,-0.1736,-0.1714,-0.1717,-0.1712,-0.1708,-0.1582,-0.157,-0.1728,-0.1729,-0.1729,-0.1729,-0.1729,-0.1695,-0.1692,-0.1745,-0.1789,-0.1807,-0.1832,-0.1825,-0.1811,-0.1766,-0.1764,-0.172,-0.1572,-0.1561,-0.1735,-0.1734,-0.1733,-0.1733,-0.1732,-0.1732,-0.1667,-0.1662,-0.171,-0.175,-0.1793,-0.182,-0.1793,-0.1806,-0.1796,-0.1788,-0.1568,-0.1564,-0.1706,-0.1746,-0.1746,-0.1746,-0.1746,-0.1745,-0.1745,-0.1576,-0.1627,-0.1626,-0.1684,-0.1698,-0.1715,-0.1742,-0.1711,-0.1624,-0.159,-0.1587,-0.1711,-0.1711,-0.1703,-0.1741,-0.1742,-0.1742,-0.1743,-0.1743,-0.1469,-0.1488,-0.1486,-0.1498,-0.1533,-0.1444,-0.1541,-0.1423,-0.1399,-0.1308,-0.1451,-0.1459,-0.1385,-0.1392,-0.1374,-0.1324,-0.1324,-0.1324,-0.1324,-0.1355,-0.1378,-0.1349,-0.1349,-0.1336,-0.1319,-0.1114,-0.1065,-0.1094,-0.1079,-0.109,-0.1079,-0.1099,-0.1009,-0.1025,-0.1,-0.0853,-0.0853,-0.0853,-0.1241,-0.1266,-0.1213,-0.126,-0.125,-0.1131,-0.0844,-0.0661,-0.0661,-0.0842,-0.1096,-0.1276,-0.1289,-0.131,-0.1196,-0.1212,-0.1182,0,0]},{"header":{"parameterUnit":"m.s-1","parameterCategory":2,"la1":30.2992,"la2":30.254,"lo1":-89.0895,"lo2":-89.0443,"dy":0.0025,"dx":0.0025,"nx":19,"ny":19,"refTime":"2026-05-17T03:00:00:Z","depth":"2","parameterNumber":3,"parameterNumberName":"V-component_of_CURRENTS"},"data":[0,0,0,-0.0356,-0.0355,-0.0308,-0.0307,-0.022,-0.0219,0,0,0,0,0,0,0,0,0,0,0,-0.0372,-0.0372,-0.0356,-0.0355,-0.0308,-0.0307,-0.022,-0.0219,0,0,0,0,0,0,0,0,0,0,0,-0.0372,-0.0372,-0.0372,-0.0355,-0.0308,-0.0307,-0.022,-0.026,0,0,0,0,0,0,0,0,0,0,-0.0309,-0.0333,-0.0372,-0.0372,-0.0355,-0.0308,-0.0307,-0.0262,-0.0258,-0.0237,0,-0.0238,0,-0.023,-0.0214,-0.0214,0,0,0,-0.0344,-0.0337,-0.0325,-0.0372,-0.0355,-0.0308,-0.0326,-0.026,-0.0255,-0.0231,-0.0236,-0.0233,-0.0229,-0.0213,-0.0213,-0.0154,-0.0154,0,0,-0.0347,-0.0359,-0.0328,-0.0322,-0.0351,-0.0328,-0.0325,-0.0257,-0.0254,-0.0236,-0.0231,-0.0228,-0.0213,-0.0212,-0.0154,-0.0154,0,0,0,-0.0362,-0.0361,-0.0351,-0.0325,-0.0321,-0.0326,-0.0323,-0.0257,-0.0254,-0.023,-0.0227,-0.0212,-0.0211,-0.0154,-0.0154,-0.0216,0,0,0,-0.0363,-0.0371,-0.0352,-0.0358,-0.0323,-0.0293,-0.0325,-0.0259,-0.0251,-0.0227,-0.0212,-0.021,-0.0154,-0.0154,-0.0214,-0.0225,0,0,0,-0.0373,-0.0371,-0.0369,-0.0359,-0.0344,-0.0294,-0.0286,-0.0257,-0.0249,-0.0213,-0.021,-0.0154,-0.0154,-0.0213,-0.0223,-0.0162,0,0,0,-0.0382,-0.0405,-0.037,-0.039,-0.0344,-0.0333,-0.0287,-0.0268,-0.0243,-0.0212,-0.0154,-0.0154,-0.0213,-0.0221,-0.0162,-0.0066,-0.0059,0,0,-0.0422,-0.041,-0.0422,-0.0391,-0.0403,-0.0338,-0.0331,-0.0277,-0.0231,-0.0173,-0.0171,-0.0215,-0.0223,-0.0162,-0.0061,-0.0054,0,0,0,-0.0442,-0.0456,-0.0451,-0.0448,-0.0418,-0.0377,-0.0324,-0.0287,-0.0234,-0.0217,-0.0196,-0.0198,-0.0158,-0.0099,-0.0093,-0.0154,-0.0154,-0.0154,-0.0154,-0.0515,-0.05,-0.052,-0.0496,-0.0475,-0.0404,-0.0362,-0.0296,-0.0262,-0.0244,-0.0235,-0.0213,-0.0154,-0.0147,-0.0227,-0.0227,-0.0228,-0.0228,-0.0228,-0.0587,-0.0601,-0.0568,-0.0586,-0.0525,-0.0502,-0.0394,-0.0353,-0.0266,-0.0261,-0.0219,-0.0152,-0.0144,-0.0233,-0.0232,-0.0231,-0.0231,-0.023,-0.023,-0.0644,-0.0646,-0.0652,-0.0654,-0.0624,-0.0549,-0.0461,-0.0393,-0.0308,-0.0279,-0.0145,-0.0142,-0.0222,-0.0242,-0.0241,-0.0241,-0.0241,-0.0241,-0.0241,-0.0694,-0.0697,-0.0726,-0.0716,-0.0704,-0.0638,-0.0494,-0.0396,-0.0244,-0.0177,-0.0175,-0.0215,-0.0215,-0.022,-0.0238,-0.0238,-0.0239,-0.0239,-0.0239,-0.0758,-0.076,-0.0799,-0.0804,-0.0757,-0.0719,-0.055,-0.0286,-0.0148,-0.0045,-0.0088,-0.0093,-0.0043,-0.0046,-0.0044,-0.0015,-0.0015,-0.0015,-0.0015,-0.0796,-0.0802,-0.0848,-0.0853,-0.0814,-0.0747,-0.0594,-0.0369,-0.0119,-0.0043,-0.0043,-0.006,-0.0067,-0.002,-0.0023,-0.0022,0.0012,0.0011,0.0011,-0.0827,-0.084,-0.0873,-0.0881,-0.0848,-0.0781,-0.0736,-0.0532,-0.0145,0.0001,-0.0149,0.0008,-0.0015,-0.0026,0.0049,0.0041,0.0045,0,0]}],[{"header":{"parameterUnit":"m.s-1","parameterCategory":2,"la1":30.2992,"la2":30.254,"lo1":-89.0895,"lo2":-89.0443,"dy":0.0025,"dx":0.0025,"nx":19,"ny":19,"refTime":"2026-05-17T03:00:00:Z","depth":"4","parameterNumber":2,"parameterNumberName":"U-component_of_CURRENTS"},"data":[0,0,0,-0.1155,-0.1157,-0.1245,-0.1246,-0.1284,-0.1284,0,0,0,0,0,0,0,0,0,0,0,-0.1125,-0.1125,-0.1155,-0.1157,-0.1245,-0.1246,-0.1284,-0.1284,0,0,0,0,0,0,0,0,0,0,0,-0.1124,-0.1125,-0.1126,-0.1157,-0.1245,-0.1246,-0.1284,-0.1236,0,0,0,0,0,0,0,0,0,0,-0.1159,-0.1143,-0.1125,-0.1126,-0.1158,-0.1245,-0.1246,-0.1234,-0.1239,-0.1223,0,-0.1242,0,-0.1263,-0.1285,-0.1285,0,0,0,-0.1157,-0.114,-0.1163,-0.1126,-0.1159,-0.1245,-0.1205,-0.1238,-0.1242,-0.1228,-0.1243,-0.1245,-0.1263,-0.1285,-0.1285,-0.1293,-0.1293,0,0,-0.1152,-0.114,-0.1159,-0.1166,-0.1187,-0.1203,-0.1208,-0.1241,-0.1247,-0.1243,-0.1246,-0.1264,-0.1285,-0.1286,-0.1293,-0.1293,0,0,0,-0.1138,-0.1136,-0.116,-0.1164,-0.1185,-0.1205,-0.1212,-0.1246,-0.1254,-0.1247,-0.1264,-0.1286,-0.1286,-0.1293,-0.1293,-0.1303,0,0,0,-0.1135,-0.1128,-0.1158,-0.1151,-0.1185,-0.1227,-0.1215,-0.1252,-0.1257,-0.1264,-0.1286,-0.1286,-0.1293,-0.1293,-0.1303,-0.1326,0,0,0,-0.112,-0.1126,-0.1138,-0.115,-0.1189,-0.1228,-0.1238,-0.1254,-0.1267,-0.1285,-0.1286,-0.1293,-0.1293,-0.1303,-0.1325,-0.1284,0,0,0,-0.1101,-0.112,-0.1138,-0.1168,-0.1188,-0.1234,-0.1239,-0.1282,-0.1302,-0.1286,-0.1293,-0.1293,-0.1303,-0.1324,-0.1284,-0.1097,0,0,0,-0.1112,-0.1122,-0.1139,-0.1157,-0.119,-0.1221,-0.125,-0.1283,-0.129,-0.1277,-0.1278,-0.1303,-0.1325,-0.1284,-0.1097,0,0,0,0,-0.1133,-0.1139,-0.1156,-0.1181,-0.1219,-0.1248,-0.1276,-0.1286,-0.1301,-0.1301,-0.13,-0.1313,-0.1286,-0.1178,-0.1293,-0.1293,-0.1293,-0.1293,-0.1293,-0.1113,-0.1136,-0.116,-0.1188,-0.122,-0.1264,-0.1285,-0.1297,-0.1301,-0.1308,-0.1318,-0.1294,-0.118,-0.1304,-0.1304,-0.1304,-0.1304,-0.1304,-0.1304,-0.1109,-0.1114,-0.1157,-0.1193,-0.1229,-0.1263,-0.1293,-0.1305,-0.1303,-0.132,-0.1292,-0.1194,-0.1305,-0.1305,-0.1305,-0.1305,-0.1305,-0.1304,-0.1304,-0.1077,-0.108,-0.1126,-0.1174,-0.123,-0.128,-0.1284,-0.133,-0.1323,-0.1317,-0.1166,-0.1291,-0.1292,-0.1291,-0.1291,-0.129,-0.129,-0.129,-0.129,-0.1016,-0.1056,-0.1076,-0.1152,-0.1184,-0.1236,-0.1293,-0.1264,-0.1282,-0.1167,-0.1319,-0.1289,-0.1289,-0.129,-0.1289,-0.1289,-0.1289,-0.129,-0.129,-0.0932,-0.097,-0.098,-0.101,-0.1058,-0.1079,-0.1185,-0.1109,-0.105,-0.0973,-0.1058,-0.1069,-0.1043,-0.1049,-0.1041,-0.0966,-0.0964,-0.0961,0,-0.0859,-0.0884,-0.085,-0.0838,-0.0825,-0.094,-0.0832,-0.0841,-0.0859,-0.0822,-0.1015,-0.1111,-0.1119,-0.1091,-0.1093,-0.1083,0,0,0,-0.0779,-0.0785,-0.0708,-0.0709,-0.0682,-0.0687,-0.0782,-0.072,-0.0901,-0.0799,-0.09,-0.0916,-0.1142,-0.1285,-0.1273,-0.1273,-0.1274,0,0]},{"header":{"parameterUnit":"m.s-1","parameterCategory":2,"la1":30.2992,"la2":30.254,"lo1":-89.0895,"lo2":-89.0443,"dy":0.0025,"dx":0.0025,"nx":19,"ny":19,"refTime":"2026-05-17T03:00:00:Z","depth":"4","parameterNumber":3,"parameterNumberName":"V-component_of_CURRENTS"},"data":[0,0,0,-0.0263,-0.0263,-0.0254,-0.0254,-0.02,-0.0199,0,0,0,0,0,0,0,0,0,0,0,-0.0265,-0.0266,-0.0263,-0.0263,-0.0254,-0.0254,-0.02,-0.0199,0,0,0,0,0,0,0,0,0,0,0,-0.0265,-0.0266,-0.0266,-0.0263,-0.0254,-0.0254,-0.02,-0.0215,0,0,0,0,0,0,0,0,0,0,-0.0228,-0.0241,-0.0265,-0.0266,-0.0263,-0.0254,-0.0254,-0.0216,-0.0214,-0.0194,0,-0.02,0,-0.0201,-0.0195,-0.0195,0,0,0,-0.0254,-0.0243,-0.0241,-0.0266,-0.0263,-0.0254,-0.0256,-0.0215,-0.0213,-0.0191,-0.0199,-0.0198,-0.02,-0.0195,-0.0195,-0.0114,-0.0114,0,0,-0.0255,-0.026,-0.0243,-0.024,-0.0269,-0.0256,-0.0255,-0.0214,-0.0214,-0.0199,-0.0196,-0.0199,-0.0195,-0.0194,-0.0115,-0.0114,0,0,0,-0.0262,-0.026,-0.026,-0.0242,-0.0245,-0.0256,-0.0255,-0.0215,-0.0216,-0.0196,-0.0199,-0.0194,-0.0194,-0.0115,-0.0115,-0.0129,0,0,0,-0.0262,-0.0265,-0.026,-0.0262,-0.0247,-0.0237,-0.0257,-0.0219,-0.0215,-0.0199,-0.0194,-0.0193,-0.0116,-0.0115,-0.013,-0.016,0,0,0,-0.0264,-0.0265,-0.0267,-0.0263,-0.0263,-0.0237,-0.0235,-0.0218,-0.0216,-0.0195,-0.0193,-0.0116,-0.0115,-0.0131,-0.016,-0.0144,0,0,0,-0.0265,-0.0272,-0.0267,-0.0274,-0.0263,-0.0246,-0.0236,-0.0224,-0.0208,-0.0194,-0.0116,-0.0115,-0.0131,-0.016,-0.0144,-0.0228,0,0,0,-0.0274,-0.0273,-0.0277,-0.0272,-0.0262,-0.0246,-0.0217,-0.0198,-0.018,-0.0126,-0.0124,-0.013,-0.016,-0.0144,-0.0162,0,0,0,0,-0.0279,-0.0283,-0.0278,-0.0273,-0.0256,-0.023,-0.0203,-0.018,-0.0139,-0.0167,-0.0103,-0.0122,-0.0112,-0.0159,-0.0109,-0.011,-0.011,-0.011,-0.011,-0.0298,-0.0289,-0.0293,-0.0274,-0.0256,-0.0212,-0.0186,-0.0143,-0.0125,-0.0102,-0.0113,-0.0088,-0.0135,-0.0077,-0.0077,-0.0077,-0.0077,-0.0077,-0.0077,-0.0329,-0.0343,-0.0314,-0.0322,-0.0279,-0.0254,-0.0173,-0.0149,-0.0096,-0.0089,-0.0077,-0.0146,-0.0078,-0.0078,-0.0078,-0.0077,-0.0077,-0.0077,-0.0077,-0.0368,-0.0373,-0.0379,-0.0385,-0.0363,-0.0307,-0.0275,-0.0205,-0.0131,-0.0116,-0.0151,-0.0094,-0.0116,-0.0104,-0.0104,-0.0104,-0.0104,-0.0105,-0.0105,-0.0419,-0.0417,-0.0459,-0.0457,-0.0468,-0.0444,-0.0347,-0.0294,-0.0201,-0.0187,-0.0126,-0.0097,-0.0096,-0.0116,-0.0105,-0.0105,-0.0105,-0.0105,-0.0105,-0.0474,-0.0492,-0.055,-0.0579,-0.0601,-0.0575,-0.0474,-0.0356,-0.0304,-0.0255,-0.0208,-0.0202,-0.0207,-0.0203,-0.0228,-0.025,-0.0251,-0.0252,0,-0.0523,-0.0532,-0.0634,-0.0699,-0.0726,-0.0658,-0.059,-0.0491,-0.0369,-0.0392,-0.0311,-0.0264,-0.0258,-0.027,-0.0268,-0.0301,0,0,0,-0.0564,-0.0591,-0.0681,-0.0755,-0.0795,-0.0682,-0.0574,-0.0545,-0.0389,-0.0334,-0.0279,-0.0272,-0.0184,-0.0107,-0.0102,-0.0101,-0.0133,0,0]}]]